Regional Weather Roundup
Issued by NWS Wilmington, NC

Home | Current Version | Previous Version | Text Only | Print | Product List | Glossary On
Versions: 1 2 3 4 5 6 7 8 9 10 11 12 13 14 15 16 17 18 19 20 21 22 23 24 25 26 27 28 29 30 31 32 33 34 35 36 37 38 39 40 41 42 43 44 45 46 47 48 49 50
000
ASUS42 KILM 190010
RWRILM
RWRILM
REGIONAL HOURLY WEATHER ROUNDUP
NATIONAL WEATHER SERVICE WILMINGTON NC
800 PM EDT THU SEP 18 2014

NOTE: "FAIR" INDICATES FEW OR NO CLOUDS BELOW 12,000 FEET WITH NO
SIGNIFICANT WEATHER AND/OR OBSTRUCTIONS TO VISIBILITY.

...............WFO WILMINGTON COUNTY WARNING AREA...............

......COASTAL NC AND SC COUNTIES......

CITY           SKY/WX    TMP DP  RH WIND       PRES   REMARKS
WILMINGTON     PTCLDY    74  62  66 E6        30.00R
SOUTHPORT      PTCLDY    73  62  68 E5        29.99R
N MYRTLE BEACH PTCLDY    74  65  73 NE9       29.97R
MYRTLE BEACH   MOCLDY    79  66  65 E16       29.96S

......INLAND NC AND SC COUNTIES.......

CITY           SKY/WX    TMP DP  RH WIND       PRES   REMARKS
LUMBERTON      CLEAR     73  66  78 SE5       29.97R
ELIZABETHTOWN  CLEAR     74  65  73 E3        29.99R
WHITEVILLE     PTCLDY    73  66  78 E5        29.98R
FLORENCE       CLEAR     75  68  78 E6        29.96R
DARLINGTON     NOT AVBL

....................REST OF NORTH CAROLINA......................

.........EASTERN NC.........

CITY           SKY/WX    TMP DP  RH WIND       PRES   REMARKS
CAPE HATTERAS  CLEAR     68  57  68 NE8       30.01S
JACKSONVILLE   PTCLDY    70  61  73 E7        30.01R
MOREHEAD CITY  CLEAR     72  60  66 NE6       30.02R
KENANSVILLE    CLEAR     71  62  73 E3        30.01R
NEW BERN       CLEAR     73  59  61 E7        30.02R
ELIZABETH CITY CLEAR     67  57  70 E6        30.04R

.........CENTRAL NC.........

CITY           SKY/WX    TMP DP  RH WIND       PRES   REMARKS
RALEIGH DURHAM MOCLDY    73  60  63 VRB5      30.00R
ROCKY MOUNT    CLEAR     66  62  87 CALM      30.01R
ROANOKE RAPIDS NOT AVBL
FAYETTEVILLE   CLEAR     73  64  73 E3        29.98R
HOFFMAN        CLEAR     73  63  68 VRB1      30.00R

.........WESTERN NC.........

CITY           SKY/WX    TMP DP  RH WIND       PRES   REMARKS
CHARLOTTE      MOCLDY    73  64  73 N5        30.00R
GREENSBORO     CLOUDY    71  63  75 NE3       30.01R
HICKORY        NOT AVBL
BOONE          NOT AVBL
ASHEVILLE      NOT AVBL

.....................REST OF SOUTH CAROLINA.....................

.........EASTERN SC.........

CITY           SKY/WX    TMP DP  RH WIND       PRES   REMARKS
CHARLESTON     PTCLDY    75  71  87 CALM      29.95R
BEAUFORT MCAS  MOCLDY    74  68  81 NW6       29.96R
HILTON HEAD    NOT AVBL

.........CENTRAL SC.........

CITY           SKY/WX    TMP DP  RH WIND       PRES   REMARKS
COLUMBIA       PTCLDY    77  67  71 SE6       29.94R
ORANGEBURG     PTCLDY    74  69  85 CALM      29.95R
SUMTER SHAW    CLEAR     75  66  75 E2        29.94R

.........WESTERN SC.........

CITY           SKY/WX    TMP DP  RH WIND       PRES   REMARKS
GREENVILLE     NOT AVBL
ROCK HILL      MOCLDY    71  67  87 N3        29.99R
ANDERSON       MOCLDY    74  66  76 CALM      29.97R
CLEMSON        NOT AVBL
GREENWOOD      CLEAR     72  66  81 CALM      29.98R


...................COASTAL AND OFFSHORE REPORTS..................

................LOCAL PIERS AND NC RESERVE................


STATION/POSITION TIME  SKY/WX   TEMP    WIND        PRES    VSBY
                                AIR SEA DIR/SP/G
                 (UTC)          (F)     (DEG/KT/KT) (MB)    (MI)
JOHNY MRCER PIER 0000            77 83   90/ 17/ 20 1015.1R
NC RESRV MASNBRO 2300            77      70/  6     1015.0S
OCEAN CREST PIER 0000            76 81   30/  8/ 12 1014.4R
SPRINGMAID  PIER 0000            78 82   70/ 17/ 19 1014.8R


................COASTAL AND OFFSHORE BUOYS................


STATION/POSITION TIME  SKY/WX   TEMP    WIND        PRES    VSBY
                                AIR SEA DIR/SP/G
                 (UTC)          (F)     (DEG/KT/KT) (MB)    (MI)
DIMNDSHOAL 41025 0000            72      20/ 17/ 21 1015.7R
WVE H/P(F/S)=  5/ 6 WND WVE H/P(F/S)=  5/ 6 SWL H/P/D(F/S/D)=  3/ 90/11

CAPE LOOKOUT     2300            75      50/ 17/ 18 1015.6R
ONSLOW BAY 41036 0000            77 83   60/ 17/ 21 1015.7R
WVE H/P(F/S)=  5/12 WND WVE H/P(F/S)=  3/ 6 SWL H/P/D(F/S/D)=  2/100/12

5 WRITEBCH 41038 2300            74 81   90/ 16/ 21   N/A
MASONBORO  41110 0000               81                N/A
WVE H/P(F/S)=  4/13 WND WVE H/P(F/S)=  3/ 5 SWL H/P/D(F/S/D)=  2/100/13

WILM HARBR 41108 0000               81                N/A
WVE H/P(F/S)=  4/ 5 WND WVE H/P(F/S)=  3/ 5 SWL H/P/D(F/S/D)=  2/120/12

27WRITEBCH 41037 2300            74 81   80/ 17/ 19 1014.8R
FRYING PAN 41013 NOT AVBL
SUNST NRSH 41024 2300            78      90/ 17/ 21 1014.4R
CAPRS NRSH 41029 2300            80      80/ 10/ 12   N/A
EDISTO     41004 0000            81 83   60/  8/ 12 1013.6R
WVE H/P(F/S)=  3/10 WND WVE H/P(F/S)=  2/ 4 SWL H/P/D(F/S/D)=  3/10



..........OFFSHORE BUOYS BEYOND 100 NM OFFSHORE...........
.....IN A TRIANGLE---HAT TO BERMUDA TO BAHAMAS TO HAT.....


STATION/POSITION TIME  SKY/WX   TEMP    WIND        PRES    VSBY
                                AIR SEA DIR/SP/G
                 (UTC)          (F)     (DEG/KT/KT) (MB)    (MI)
150E HAT   41001 NOT AVBL
W BERMUDA  41048 NOT AVBL
ATLANTIC S 41049 2247            84 85  190/  8/ 10 1016.7
WVE H/P(F/S)=  3/ 9 WND WVE H/P(F/S)=  2/ 4 SWL H/P/D(F/S/D)=  3/ 90/ 9

E BAHAMAS  41046 2249            83 85  110/  4/  6 1014.9
WVE H/P(F/S)=  3/ 8 WND WVE H/P(F/S)=  2/ 4 SWL H/P/D(F/S/D)=  3/ 90/ 8

NE BAHAMAS 41047 NOT AVBL
120E CANVRL41010 0000            83 85   50/  8/ 10 1013.1S
WVE H/P(F/S)=  3/11 SWL H/P/D(F/S/D)=  3/ 60/11


END


USA.gov is the U.S. government's official web portal to all federal, state and local government web resources and services.